Terug naar catalogus

CZ-6A DEB

ActiefPO
NORAD 61163·DEBRIS·🇨🇳 China

Gelanceerd Aug 6, 2024 vanaf Taiyuan Satellite Launch Center

Loading…

Volgende Passages (komende 24 uur)

TLE

VersSource: Space-Track

Epoch: Sep 13, 2026, 09:21 UTC

1 61163U 24140RH  26256.38985221  .00101448  00000-0  18571-2 0  9999
2 61163  88.6801 219.4345 0069080  66.7154 294.1356 15.46326371113373

Volg CZ-6A DEB in realtime met AllMySat

Download on the App Store